• In Russia
  • List of Countries
  • For 7 days
  • Water Temperature
  • Weather Map
  • Weather Widgets
  • user-avatar
    Login

    Hourly Weather Radziechowy

    Today, 16 October, Wednesday

    Time Temperature Precipitation Wind Pressure Humidity
    00:00 +13°C° 0 mm 2 mps 719 mmHg 85%
    01:00 +13°C° 0 mm 2 mps 719 mmHg 87%
    02:00 +12°C° 0 mm 2 mps 719 mmHg 86%
    03:00 +12°C° 0 mm 2 mps 719 mmHg 85%
    04:00 +12°C° 0 mm 2 mps 719 mmHg 84%
    05:00 +12°C° 0 mm 2 mps 719 mmHg 84%
    06:00 +13°C° 0 mm 2 mps 720 mmHg 83%
    07:00 +12°C° 0 mm 3 mps 720 mmHg 82%
    08:00 +13°C° 0 mm 3 mps 721 mmHg 80%
    09:00 +14°C° 0 mm 3 mps 721 mmHg 77%
    10:00 +16°C° 0 mm 3 mps 721 mmHg 75%
    11:00 +16°C° 0.1 mm 3 mps 722 mmHg 78%
    12:00 +16°C° 0.1 mm 3 mps 722 mmHg 81%
    13:00 +14°C° 0.1 mm 3 mps 722 mmHg 84%
    14:00 +14°C° 0.1 mm 3 mps 722 mmHg 85%
    15:00 +14°C° 0.1 mm 2 mps 722 mmHg 87%
    16:00 +14°C° 0.1 mm 2 mps 722 mmHg 88%
    17:00 +13°C° 0 mm 2 mps 723 mmHg 90%
    18:00 +12°C° 0 mm 2 mps 723 mmHg 92%
    19:00 +10°C° 0 mm 2 mps 723 mmHg 94%
    20:00 +10°C° 0 mm 2 mps 723 mmHg 93%
    21:00 +9°C° 0 mm 2 mps 724 mmHg 93%
    22:00 +9°C° 0 mm 2 mps 724 mmHg 92%
    23:00 +9°C° 0 mm 2 mps 724 mmHg 92%

    Tomorrow, 17 October, Thursday

    Time Temperature Precipitation Wind Pressure Humidity
    00:00 +8°C° 0 mm 2 mps 724 mmHg 91%
    01:00 +8°C° 0 mm 2 mps 724 mmHg 90%
    02:00 +8°C° 0 mm 2 mps 724 mmHg 88%
    03:00 +8°C° 0 mm 2 mps 724 mmHg 86%
    04:00 +8°C° 0 mm 2 mps 724 mmHg 85%
    05:00 +8°C° 0 mm 2 mps 724 mmHg 82%
    06:00 +9°C° 0 mm 1 mps 724 mmHg 79%
    07:00 +10°C° 0 mm 1 mps 724 mmHg 76%
    08:00 +12°C° 0 mm 1 mps 725 mmHg 69%
    09:00 +14°C° 0 mm 1 mps 725 mmHg 61%
    10:00 +18°C° 0 mm 1 mps 725 mmHg 53%
    11:00 +19°C° 0 mm 1 mps 725 mmHg 51%
    12:00 +20°C° 0 mm 1 mps 725 mmHg 48%
    13:00 +20°C° 0 mm 1 mps 725 mmHg 46%
    14:00 +19°C° 0 mm 1 mps 725 mmHg 52%
    15:00 +18°C° 0 mm 1 mps 725 mmHg 57%
    16:00 +15°C° 0 mm 0 mps 724 mmHg 63%
    17:00 +15°C° 0 mm 1 mps 724 mmHg 66%
    18:00 +14°C° 0 mm 1 mps 724 mmHg 68%
    19:00 +13°C° 0 mm 1 mps 724 mmHg 71%
    20:00 +13°C° 0 mm 1 mps 724 mmHg 71%
    21:00 +13°C° 0 mm 1 mps 724 mmHg 71%
    22:00 +13°C° 0 mm 1 mps 725 mmHg 71%
    23:00 +12°C° 0 mm 1 mps 724 mmHg 73%

    Day after tomorrow, 18 October, Friday

    Time Temperature Precipitation Wind Pressure Humidity
    00:00 +12°C° 0 mm 1 mps 724 mmHg 75%
    01:00 +12°C° 0 mm 1 mps 724 mmHg 77%
    02:00 +11°C° 0 mm 1 mps 724 mmHg 78%
    03:00 +11°C° 0 mm 1 mps 724 mmHg 79%
    04:00 +11°C° 0 mm 1 mps 724 mmHg 80%
    05:00 +11°C° 0 mm 1 mps 724 mmHg 80%
    06:00 +12°C° 0 mm 1 mps 724 mmHg 80%
    07:00 +12°C° 0 mm 1 mps 724 mmHg 79%
    08:00 +14°C° 0 mm 1 mps 724 mmHg 74%
    09:00 +16°C° 0 mm 1 mps 724 mmHg 68%
    10:00 +19°C° 0 mm 1 mps 724 mmHg 62%
    11:00 +19°C° 0 mm 1 mps 724 mmHg 60%
    12:00 +20°C° 0 mm 1 mps 724 mmHg 57%
    13:00 +21°C° 0 mm 1 mps 724 mmHg 54%
    14:00 +20°C° 0 mm 1 mps 724 mmHg 59%
    15:00 +19°C° 0 mm 1 mps 723 mmHg 64%
    16:00 +16°C° 0 mm 0 mps 723 mmHg 69%
    17:00 +16°C° 0 mm 1 mps 723 mmHg 72%
    18:00 +15°C° 0 mm 1 mps 723 mmHg 75%
    19:00 +14°C° 0 mm 1 mps 723 mmHg 78%
    20:00 +13°C° 0 mm 1 mps 723 mmHg 79%
    21:00 +13°C° 0 mm 1 mps 723 mmHg 80%
    22:00 +13°C° 0 mm 1 mps 723 mmHg 81%
    23:00 +13°C° 0 mm 1 mps 723 mmHg 82%

    19 October, Saturday

    Time Temperature Precipitation Wind Pressure Humidity
    00:00 +12°C° 0 mm 1 mps 722 mmHg 83%
    01:00 +12°C° 0 mm 1 mps 722 mmHg 84%
    02:00 +13°C° 0 mm 1 mps 722 mmHg 83%
    03:00 +13°C° 0 mm 1 mps 722 mmHg 82%
    04:00 +13°C° 0 mm 1 mps 722 mmHg 81%
    05:00 +13°C° 0 mm 1 mps 722 mmHg 81%
    06:00 +14°C° 0 mm 1 mps 722 mmHg 81%
    07:00 +14°C° 0 mm 1 mps 722 mmHg 81%
    08:00 +15°C° 0 mm 1 mps 722 mmHg 75%
    09:00 +16°C° 0 mm 1 mps 722 mmHg 70%
    10:00 +18°C° 0 mm 2 mps 722 mmHg 65%
    11:00 +18°C° 0 mm 2 mps 722 mmHg 63%
    12:00 +18°C° 0 mm 2 mps 722 mmHg 62%
    13:00 +19°C° 0 mm 2 mps 722 mmHg 61%
    14:00 +18°C° 0 mm 2 mps 721 mmHg 65%
    15:00 +18°C° 0 mm 1 mps 721 mmHg 69%
    16:00 +16°C° 0 mm 1 mps 721 mmHg 73%
    17:00 +15°C° 0 mm 1 mps 721 mmHg 76%
    18:00 +14°C° 0 mm 1 mps 721 mmHg 79%
    19:00 +13°C° 0 mm 1 mps 721 mmHg 82%
    20:00 +13°C° 0 mm 1 mps 721 mmHg 82%
    21:00 +13°C° 0 mm 2 mps 721 mmHg 81%
    22:00 +12°C° 0 mm 2 mps 721 mmHg 81%
    23:00 +12°C° 0 mm 2 mps 721 mmHg 81%

    20 October, Sunday

    Time Temperature Precipitation Wind Pressure Humidity
    00:00 +12°C° 0 mm 2 mps 720 mmHg 82%
    01:00 +12°C° 0 mm 2 mps 720 mmHg 83%
    02:00 +10°C° 0 mm 2 mps 720 mmHg 84%
    03:00 +10°C° 0 mm 2 mps 720 mmHg 84%
    04:00 +10°C° 0 mm 2 mps 720 mmHg 85%
    05:00 +11°C° 0 mm 1 mps 721 mmHg 85%
    06:00 +11°C° 0 mm 1 mps 721 mmHg 86%
    07:00 +11°C° 0 mm 1 mps 721 mmHg 86%
    08:00 +13°C° 0 mm 2 mps 721 mmHg 79%
    09:00 +15°C° 0 mm 2 mps 722 mmHg 72%
    10:00 +17°C° 0 mm 3 mps 722 mmHg 66%
    11:00 +18°C° 0 mm 3 mps 722 mmHg 64%
    12:00 +19°C° 0 mm 3 mps 723 mmHg 63%
    13:00 +19°C° 0 mm 3 mps 723 mmHg 62%
    14:00 +18°C° 0 mm 3 mps 723 mmHg 67%
    15:00 +17°C° 0 mm 2 mps 723 mmHg 71%
    16:00 +18°C° 0 mm 1 mps 723 mmHg 76%
    17:00 +15°C° 0 mm 1 mps 723 mmHg 80%
    18:00 +14°C° 0 mm 1 mps 724 mmHg 84%
    19:00 +13°C° 0 mm 1 mps 724 mmHg 88%
    20:00 +14°C° 0 mm 1 mps 724 mmHg 86%
    21:00 +14°C° 0 mm 1 mps 725 mmHg 85%
    22:00 +14°C° 0 mm 1 mps 725 mmHg 84%
    23:00 +14°C° 0 mm 1 mps 725 mmHg 86%

    21 October, Monday

    Time Temperature Precipitation Wind Pressure Humidity
    00:00 +13°C° 0 mm 1 mps 725 mmHg 87%
    01:00 +13°C° 0 mm 1 mps 725 mmHg 89%
    02:00 +12°C° 0 mm 1 mps 725 mmHg 89%
    03:00 +12°C° 0 mm 1 mps 725 mmHg 90%
    04:00 +12°C° 0 mm 1 mps 725 mmHg 90%
    05:00 +12°C° 0 mm 1 mps 725 mmHg 90%
    06:00 +12°C° 0 mm 1 mps 725 mmHg 89%
    07:00 +13°C° 0 mm 1 mps 726 mmHg 88%
    08:00 +15°C° 0 mm 1 mps 726 mmHg 81%
    09:00 +18°C° 0 mm 1 mps 726 mmHg 73%
    10:00 +20°C° 0 mm 1 mps 727 mmHg 65%
    11:00 +21°C° 0 mm 1 mps 727 mmHg 62%
    12:00 +22°C° 0 mm 1 mps 727 mmHg 59%
    13:00 +23°C° 0 mm 2 mps 727 mmHg 55%
    14:00 +21°C° 0 mm 1 mps 726 mmHg 60%
    15:00 +20°C° 0 mm 1 mps 726 mmHg 66%
    16:00 +19°C° 0 mm 1 mps 726 mmHg 71%
    17:00 +18°C° 0 mm 1 mps 726 mmHg 73%
    18:00 +16°C° 0 mm 1 mps 726 mmHg 76%
    19:00 +15°C° 0 mm 1 mps 726 mmHg 78%
    20:00 +15°C° 0 mm 1 mps 726 mmHg 77%
    21:00 +14°C° 0 mm 1 mps 726 mmHg 76%
    22:00 +14°C° 0 mm 1 mps 726 mmHg 75%
    23:00 +14°C° 0 mm 1 mps 726 mmHg 74%
    Show more